Location: Cofous
(44.4000°N, 6.7667°E)
Time: 14:09:02
(UTC+00:00)

Daily predictions for brighter satellites

Satellite Brightness Start Highest point End
(mag) Time Altitude Azimuth Time Altitude Azimuth Time Altitude Azimuth
BREEZE-M DEB (TANK) 3.8 17:02:13 10° WNW 17:06:09 48° NNE 17:14:34 10° E
Cosmos 2263 Rocket 3.6 17:08:59 10° SW 17:14:16 39° WNW 17:19:34 10° NNE
Unknown 3.6 17:10:12 10° SW 17:14:20 86° SE 17:18:29 10° ENE
CSL-04 Rocket 4.2 17:10:50 10° SE 17:15:53 38° ENE 17:20:55 10° N
Unknown 3.6 17:11:55 10° SW 17:16:03 88° SE 17:20:13 10° ENE
Cosmos 2285 Rocket 4.1 17:10:27 10° NNW 17:16:49 59° ENE 17:23:08 10° SE
SMAP 3.8 17:13:16 10° S 17:17:52 61° W 17:22:29 10° NNW
Cosmos 1602 Rocket 4.4 17:13:36 10° NNW 17:17:53 57° W 17:22:08 10° S
Cosmos 1758 Rocket 3.6 17:13:51 10° N 17:18:15 59° E 17:22:40 10° SSE
Unknown 3.7 17:15:57 10° WSW 17:20:02 79° NNW 17:24:08 10° NE
Envisat 3.0 17:16:49 10° SSE 17:21:50 63° ENE 17:26:52 10° N
SL-4 R/B 1.9 17:18:04 10° NW 17:22:00 64° NNE 17:25:37 10° ESE
Unknown 3.7 17:18:31 10° WSW 17:22:40 84° NNW 17:26:50 10° NE
Cosmos 1932 4.5 17:16:52 10° SSW 17:23:06 77° ESE 17:29:31 10° NE
Unknown 3.7 17:20:11 10° WSW 17:24:20 82° NNW 17:28:30 10° NE
NOAA 12 4.1 17:19:57 10° SSE 17:25:14 88° ENE 17:30:34 10° NNW
Cosmos 1271 Rocket 3.1 17:21:38 10° N 17:25:28 46° ENE 17:29:19 10° SSE
Unknown 3.7 17:21:52 10° WSW 17:26:01 80° NW 17:30:11 10° NE
Unknown 3.7 17:23:29 10° WSW 17:27:38 78° NNW 17:31:47 10° NE
Unknown 3.8 17:25:10 10° WSW 17:29:18 76° NNW 17:33:28 10° NE
Cosmos 1833 Rocket 4.2 17:26:32 10° N 17:30:20 18° NE 17:33:53 11° E
Unknown 4.1 17:27:45 10° WSW 17:31:45 56° NNW 17:35:44 10° NE
Unknown 3.8 17:28:33 10° WSW 17:32:41 72° NNW 17:36:51 10° NE
SKYMED 2 3.6 17:28:35 10° NNE 17:32:54 59° E 17:37:10 10° S
Cosmos 1626 2.9 17:29:55 10° NNW 17:33:35 57° W 17:37:13 10° S
Starlink (trailer) 3.8 17:30:13 10° WSW 17:34:20 70° NNW 17:38:29 10° NE
Unknown 3.9 17:31:53 10° WSW 17:36:01 68° NNW 17:40:09 10° NE
Cosmos 1356 4.5 17:33:52 10° SSE 17:36:41 24° E 17:39:32 10° NE
Unknown 3.9 17:33:30 10° WSW 17:37:38 67° NNW 17:41:46 10° NE
YAOGAN 1 2.8 17:33:29 10° SE 17:37:39 48° ENE 17:41:50 10° N
Cosmos 1953 2.3 17:34:00 10° S 17:38:04 86° E 17:42:09 10° N
H-2A R/B 4.3 17:34:29 10° S 17:38:10 41° W 17:41:54 10° NNW
Cosmos 1726 2.8 17:36:47 10° SSE 17:40:02 31° E 17:43:17 10° NNE
Cosmos 1703 4.1 17:37:32 10° NNE 17:41:00 28° ENE 17:44:25 10° SE
Unknown 4.0 17:40:11 10° WSW 17:44:16 60° NNW 17:48:17 11° NE
Unknown 4.0 17:40:13 10° WSW 17:44:19 61° NNW 17:48:20 11° NE
CZ-4C R/B 3.3 17:37:45 10° NW 17:45:02 73° WSW 17:53:15 10° SSE
Unknown 4.0 17:41:01 10° WSW 17:45:07 60° NNW 17:49:06 11° NE
COSMOS 2406 3.6 17:41:15 10° NNW 17:46:44 42° ENE 17:52:10 10° SE
Cosmos 2082 Rocket 3.7 17:44:02 10° N 17:47:51 18° NE 17:50:13 14° ENE
Unknown 4.1 17:45:07 10° WSW 17:49:11 56° NNW 17:53:00 12° NE
Unknown 4.1 17:45:14 10° WSW 17:49:19 57° NNW 17:53:07 12° NE
Cosmos 1354 Rocket 4.0 17:44:56 10° NNW 17:50:11 89° W 17:55:26 10° SSE
Unknown 4.2 17:47:02 10° WSW 17:51:06 53° NNW 17:54:50 12° NE
Cosmos 1726 Rocket 3.5 17:47:29 10° S 17:51:53 82° E 17:56:17 10° N
ASTEX 1 3.3 17:48:37 10° N 17:53:35 81° E 17:58:33 10° S
Unknown 4.3 17:50:22 10° WSW 17:54:25 51° NNW 17:58:01 13° NE
Unknown 4.3 17:50:55 10° WSW 17:54:58 52° NNW 17:58:32 13° NE
FengYun 1-2 T 4.4 17:50:12 10° SSE 17:55:52 84° WSW 18:01:31 10° NNW
Okean-O 4.4 17:51:50 10° SSW 17:55:54 36° W 18:00:02 10° NNW
CSL-04 Debris 4.1 17:50:31 10° SSE 17:55:57 79° ENE 18:01:27 10° NNW
Unknown 4.3 17:51:57 10° WSW 17:56:00 52° NNW 17:59:32 13° NE
Meteor 1-11 4.5 17:52:06 10° N 17:57:39 47° ENE 18:03:12 10° SSE
Cosmos 1242 Rocket 2.6 17:55:00 10° N 17:58:39 56° ENE 18:02:16 10° SSE
Unknown 4.3 17:55:10 10° WSW 17:59:13 51° NNW 18:02:36 14° NE
Shenzhou-11 Module 2.2 17:57:18 10° WSW 18:00:00 47° S 18:00:58 30° ESE
Cosmos 968 Rocket 4.0 17:55:22 10° NNW 18:00:35 65° WSW 18:05:47 10° S
Cosmos 2058 Rocket 2.9 17:57:28 10° S 18:01:48 68° E 18:06:08 10° NNE
Unknown 4.5 17:59:36 10° NW 18:02:10 23° NNE 18:03:09 20° NE
Unknown 4.4 17:58:38 10° W 18:02:40 48° NNW 18:05:54 15° NE
Cosmos 1939 Rocket 3.1 17:59:15 10° SE 18:03:00 44° ENE 18:06:50 10° N
Abrixas rocket 4.1 18:01:31 10° S 18:02:55 14° SSE 18:02:55 14° SSE
Unknown 4.4 18:00:19 10° W 18:04:19 47° NNW 18:07:29 15° NE
Ariane Rocket 3.3 17:59:36 10° SE 18:04:27 46° ENE 18:09:20 10° N
Cosmos 2228 3.4 18:00:49 10° SSW 18:05:10 68° W 18:09:32 10° N
Unknown 4.5 18:02:02 10° W 18:06:02 46° NNW 18:09:07 16° NE
Unknown 4.5 18:03:42 10° W 18:07:41 45° NNW 18:10:43 16° NE
Cosmos 1821 Rocket 4.5 18:03:04 10° NNW 18:09:04 62° W 18:15:06 10° S
Cosmos 1605 Rocket 4.0 18:03:07 10° N 18:09:15 57° ENE 18:15:15 10° SSE
Lacrosse 5 rocket 1.3 18:06:24 10° NW 18:10:10 71° SW 18:13:01 18° SE
Cosmos 482 Debris 4.1 18:05:43 10° WNW 18:10:43 74° NNE 18:12:02 34° ESE
Cosmos 1844 Rocket 3.3 18:07:03 10° SW 18:12:38 58° WNW 18:18:13 10° NNE
Meteor 1-16 Rocket 4.2 18:07:57 10° S 18:13:35 85° W 18:19:04 10° N
Meteor 2-10 3.8 18:09:24 10° S 18:14:31 77° E 18:19:34 10° NNE
USA 234 4.3 18:13:46 20° ESE 18:14:41 21° ESE 18:19:25 10° S
Cosmos 1727 Rocket 4.3 18:09:15 10° SSE 18:14:56 40° E 18:20:38 10° NNE
Cosmos 921 Rocket 3.3 18:12:24 10° SSW 18:16:54 75° WNW 18:21:24 10° NNE
Cosmos 1908 3.1 18:15:43 10° S 18:19:36 65° E 18:23:28 10° NNE
COSMO-SKYMED 1 3.9 18:16:50 10° N 18:20:57 42° WNW 18:25:02 10° SW
YAOGAN 6 4.1 18:17:35 10° SSW 18:21:04 39° W 18:24:32 10° NNW
CZ-4 R/B 2.8 18:18:04 10° S 18:21:59 41° W 18:25:59 10° NNW
Cosmos 1328 3.9 18:19:38 10° N 18:23:38 78° W 18:27:35 10° S
Cosmos 1934 Rocket 4.2 18:17:35 10° N 18:23:55 76° W 18:30:15 10° S
Cosmos 1777 Rocket 4.0 18:19:36 10° NNW 18:24:47 58° ENE 18:27:47 24° SE
H-2A R/B 3.0 18:28:31 27° ENE 18:28:31 27° ENE 18:32:57 10° N
Cosmos 2278 Rocket 2.3 18:23:13 10° S 18:28:39 50° ESE 18:34:07 10° NE
Cosmos 839 Rocket 4.1 18:24:00 10° NNW 18:30:14 87° ENE 18:36:18 15° SSE
NOSS 3-2 (A) 4.5 18:25:50 10° SSE 18:28:51 23° SE 18:28:51 23° SE
HJ-1C 3.2 18:33:06 68° ENE 18:33:06 68° ENE 18:36:28 10° N
Lacrosse 5 2.9 18:30:22 10° NW 18:34:50 30° NNE 18:35:56 27° NE
Cosmos 292 Rocket 4.0 18:38:38 10° SSW 18:43:22 69° WNW 18:48:07 10° NNE
ATLAS 5 CENTAUR R/B 3.7 18:40:14 10° W 18:43:51 24° NW 18:47:49 10° NNE
CZ-2C R/B 4.5 18:45:56 26° NE 18:45:56 26° NE 18:49:46 10° N
Cosmos 2100 Rocket 4.1 18:42:46 10° N 18:48:44 47° ENE 18:49:41 44° ESE
Cosmos 1153 Rocket 4.4 18:54:54 10° N 19:01:05 89° WSW 19:06:14 15° S
SL-4 R/B 3.7 18:58:20 10° W 19:01:17 22° SW 19:01:45 22° SSW
Gbstr 26 Del rocket 4.2 19:05:04 10° WNW 19:11:28 66° NNE 19:12:54 55° ENE
Cosmos 2016 Rocket 4.5 19:08:23 10° N 19:13:09 42° NE 19:13:09 42° NE
ARGOS 3.5 19:15:47 52° NNE 19:15:47 52° NNE 19:20:08 10° N
Cosmos 1833 Rocket 2.6 19:09:23 10° NNW 19:15:02 88° WSW 19:15:37 73° SSE
Cosmos 2061 Rocket 4.3 19:14:54 10° N 19:19:54 49° NE 19:19:54 49° NE
Cosmos 1461 4.4 19:19:53 10° NNW 19:22:03 30° NNW 19:22:03 30° NNW
ADEOS Rocket 3.4 19:21:15 10° NNE 19:29:04 79° ESE 19:36:22 10° S
Cosmos 2082 Rocket 2.3 19:27:02 10° NNW 19:32:05 70° NNW 19:32:05 70° NNW
SPOT 3 Rocket 4.4 19:49:53 47° WNW 19:49:53 47° WNW 19:54:05 10° NNW
USA 238 DEB 3.7 19:46:54 10° SW 19:53:10 73° W 19:53:10 73° W
USA 238 3.7 19:47:00 10° SW 19:53:11 73° W 19:53:11 73° W
Resurs 01 Rocket 4.4 19:59:20 13° NNW 19:59:20 13° NNW 19:59:45 10° NNW
Cosmos 1459 Rocket 4.4 19:49:42 10° NNW 19:55:47 60° W 19:55:52 60° W
USA 234 4.2 20:01:11 37° SW 20:01:11 37° SW 20:04:54 10° SW
H-2A R/B 3.5 20:09:09 35° WNW 20:09:09 35° WNW 20:12:47 10° NNW
Cosmos 2278 Rocket 4.0 20:08:06 10° WSW 20:12:59 29° NW 20:16:57 14° N
Lacrosse 5 4.0 20:13:11 10° NW 20:15:08 24° NW 20:15:08 24° NW
